Other Surface Observations
Issued by NWS Charleston, SC

Home | Current Version | Previous Version | Text Only | Print | Product List | Glossary On
Versions: 1 2 3 4 5 6 7 8 9 10 11 12 13 14 15 16 17 18 19 20 21 22 23 24 25 26 27 28 29 30 31 32 33 34 35 36 37 38 39 40 41 42 43 44 45 46 47 48 49 50
000
SXUS52 KCHS 200212
OSOCHS

Marine Observations
National Weather Service Charleston SC
900 PM EST MON FEB 19 2018

...Downtown Charleston and Harbor...

CITY           SKY/WX    TMP DP  RH WIND       PRES   REMARKS
Waterfront Prk NOT AVBL

...Lake Moultrie...

CITY           SKY/WX    TMP DP  RH WIND       PRES   REMARKS
Pinopolis        N/A     66  66 100 VRB2      30.29R

...Lake and Supplemental Coastal Observations...

STATION/POSITION TIME  TEMP    WIND        PRES    WAVE   SWELL
                       AIR SEA DIR/SP/G            HT/PER HT/PER/DIR
                 (UTC) (F)     (DEG/KT/KT) (MB)    (FT/S) (FT/S/D)
Fort Pulaski     0142   61 59   90/  5/  5 1028.3R
Sapelo Island    0100   65     100/  5     1027.0
Winyah Bay       0045   59      60/  2     1029.0
Lake Murray      0120   66      80/  2/  5 1026.8
ACE Basin NERRS  0045   65        CALM     1028.0


...C-MAN and Buoy Observations...

STATION/POSITION TIME  TEMP    WIND        PRES    WAVE   SWELL
                       AIR SEA DIR/SP/G            HT/PER HT/PER/DIR
                 (UTC) (F)     (DEG/KT/KT) (MB)    (FT/S) (FT/S/D)
Buoy 41004       0150   70 68  140/  6/  6 1028.5R   3/ 8   3/ 90/ 8
Buoy 41008       0150   62 58  130/  6/  8 1027.3R   3/ 9   3/ 90/ 9
Folly Beach CMAN 0200   60      60/  5/  6 1029.2R
Pritchards Islan NOT AVBL
Capers NS Buoy   0108   55 58  100/  6/  8 1028.1R
Fripp NS Buoy    0108   58 59  100/  6/  8 1026.9R
5E St. Marys GA  0200      62                N/A     3/ 7


STATION/POSITION TIME  TEMP    WIND        PRES    WAVE   SWELL
                       AIR SEA DIR/SP/G            HT/PER HT/PER/DIR
                 (UTC) (F)     (DEG/KT/KT) (MB)    (FT/S) (FT/S/D)
Frying Pan Buoy  0150   71 68  140/ 10/ 12 1029.4R   4/ 6   3/100/ 6
Buoy 41025       0150   71 73  160/ 16/ 19 1031.1R   4/ 9   2/ 50/ 9
Cape Lookout NC  0200          170/  4/  5 1030.8R
Buoy 41002       0150   71 72  110/ 14/ 16 1030.7R   4/ 9   3/ 60/ 9
Buoy 41010       NOT AVBL
St Augustine FL  0200   67 62  120/  9/ 10 1026.9R

$$




USA.gov is the U.S. government's official web portal to all federal, state and local government web resources and services.